This is the latest recevied weather packets stored in our database for station/object VA7NEZ. If no packets are shown the sender has not sent any weather packets the latest 10 day(s).
| Time | Temp. | Humidity | Pressure | Rain* | Wind** | Luminosity | Snow |
|---|---|---|---|---|---|---|---|
| 1777910876 | 16.67° C | 52% | 1012.4 hPa | 0 mm | - | - | - |
| 1777910397 | 0° C | 100% | 1012.4 hPa | 0 mm | - | - | - |
| 1777909856 | 16.11° C | 50% | 1012.3 hPa | 0 mm | - | - | - |
| 1777909367 | 0° C | 100% | 1012.3 hPa | 0 mm | - | - | - |
| 1777908821 | 15° C | 49% | 1012.4 hPa | 0 mm | - | - | - |
| 1777908337 | 15° C | 50% | 1012.4 hPa | 0 mm | - | - | - |
| 1777907761 | 14.44° C | 52% | 1012.5 hPa | 0 mm | - | - | - |
| 1777906180 | 0° C | 100% | 1012.6 hPa | 0 mm | - | - | - |
| 1777905629 | 0° C | 100% | 1012.8 hPa | 0 mm | - | - | - |
| 1777905032 | 11.67° C | 62% | 1012.4 hPa | 0 mm | - | - | - |
| 1777904456 | 10.56° C | 65% | 1012.4 hPa | 0 mm | - | - | - |
| 1777903893 | 10° C | 68% | 1012.2 hPa | 0 mm | - | - | - |
| 1777903327 | 0° C | 100% | 1012.3 hPa | 0 mm | - | - | - |
| 1777902822 | 0° C | 100% | 1012.2 hPa | 0 mm | - | - | - |
| 1777902237 | 8.33° C | 72% | 1012.2 hPa | 0 mm | - | - | - |
| 1777901647 | 8.33° C | 73% | 1012.1 hPa | 0 mm | - | - | - |
| 1777901062 | 7.78° C | 74% | 1011.9 hPa | 0 mm | - | - | - |
| 1777900482 | 7.78° C | 73% | 1011.7 hPa | 0 mm | - | - | - |
| 1777898242 | 7.78° C | 72% | 1011.7 hPa | 0 mm | - | - | - |
| 1777897733 | 7.78° C | 71% | 1011.7 hPa | 0 mm | - | - | - |
| 1777896722 | 8.33° C | 71% | 1011.7 hPa | 0 mm | - | - | - |
| 1777895621 | 0° C | 100% | 1011.5 hPa | 0 mm | - | - | - |
| 1777895052 | 0° C | 100% | 1011.6 hPa | 0 mm | - | - | - |
| 1777894527 | 8.33° C | 69% | 1011.6 hPa | 0 mm | - | - | - |
| 1777893988 | 0° C | 100% | 1011.5 hPa | 0 mm | - | - | - |
* Rain latest hour (hover to see other rain measurements)
** Current wind speed in m/s (hover to see current wind gust speed)